Location: Geyikbay?r?
(36.8756°N, 30.4583°E)
Time: 16:16:34
(UTC+00:00)

Cosmos 1420 Rocket - Pass Details

Date: 05 August 2024
Orbit: 753 x 777 km, 74.0° (Epoch: 11 September)

Event Time Altitude Azimuth Distance (km) Brightness Sun altitude
Rises 18:10:11 0° 198° (SSW) 3,236 7.1 -13.2°
Reaches altitude 10° 18:12:34 10° 199° (SSW) 2,310 6.3 -13.6°
Maximum altitude 18:17:49 83° 288° (WNW) 779 4.1 -14.5°
Drops below altitude 10° 18:23:05 10° 16° (NNE) 2,309 6.7 -15.3°
Sets 18:25:27 0° 18° (NNE) 3,235 7.5 -15.7°
